Radiation Dose at Monitoring Post of Fukushima Daini Nuclear Power Station
Date,Time,MP-1(microSv/h),MP-2(microSv/h),MP-3(microSv/h),MP-4(microSv/h),MP-5(microSv/h),MP-6(microSv/h),MP-7(microSv/h),Wind Direction,Wind Velocity(m/s),Rain
2017/02/18,00:00,0.396,0.234,0.405,0.378,0.340,0.196,0.167,northwest,9.5,No
2017/02/18,00:10,0.397,0.234,0.407,0.375,0.339,0.196,0.166,west-northwest,8.2,No
2017/02/18,00:20,0.395,0.234,0.408,0.375,0.339,0.195,0.167,west-northwest,8.1,No
2017/02/18,00:30,0.396,0.235,0.406,0.376,0.339,0.197,0.166,west-northwest,7.4,No
2017/02/18,00:40,0.395,0.234,0.405,0.376,0.340,0.196,0.165,west,8.1,No
2017/02/18,00:50,0.397,0.233,0.406,0.377,0.340,0.195,0.167,west-northwest,5.7,No
2017/02/18,01:00,0.397,0.234,0.406,0.375,0.338,0.195,0.166,west-northwest,4.9,No
2017/02/18,01:10,0.395,0.234,0.407,0.376,0.339,0.196,0.167,north-northwest,4.9,No
2017/02/18,01:20,0.396,0.235,0.406,0.377,0.340,0.195,0.167,northwest,4.8,No
2017/02/18,01:30,0.397,0.233,0.407,0.375,0.338,0.196,0.166,north-northwest,3.4,No
2017/02/18,01:40,0.396,0.234,0.407,0.373,0.338,0.195,0.166,north-northwest,2.7,No
2017/02/18,01:50,0.397,0.235,0.407,0.377,0.338,0.195,0.166,north,4.2,No
2017/02/18,02:00,0.396,0.234,0.406,0.377,0.337,0.195,0.166,north,4.4,No
2017/02/18,02:10,0.397,0.234,0.406,0.375,0.338,0.196,0.166,west-northwest,4.6,No
2017/02/18,02:20,0.396,0.233,0.407,0.375,0.338,0.195,0.167,north-northwest,5.3,No
2017/02/18,02:30,0.395,0.234,0.406,0.377,0.338,0.194,0.166,north-northwest,4.3,No
2017/02/18,02:40,0.395,0.234,0.404,0.375,0.336,0.195,0.166,northwest,6.1,No
2017/02/18,02:50,0.397,0.234,0.406,0.374,0.338,0.195,0.166,west-northwest,9.9,No
2017/02/18,03:00,0.395,0.235,0.405,0.375,0.339,0.195,0.166,west-northwest,6.8,No
2017/02/18,03:10,0.395,0.234,0.407,0.376,0.339,0.197,0.166,west-northwest,8.1,No
2017/02/18,03:20,0.394,0.235,0.404,0.376,0.338,0.195,0.166,west-northwest,11.2,No
2017/02/18,03:30,0.394,0.233,0.405,0.376,0.338,0.195,0.166,west-northwest,12.7,No
2017/02/18,03:40,0.395,0.232,0.407,0.376,0.337,0.195,0.166,west-northwest,12.0,No
2017/02/18,03:50,0.395,0.235,0.406,0.376,0.339,0.195,0.167,west-northwest,9.8,No
2017/02/18,04:00,0.395,0.234,0.406,0.376,0.340,0.196,0.167,north-northwest,8.3,No
2017/02/18,04:10,0.397,0.234,0.406,0.376,0.339,0.194,0.166,north,4.0,No
2017/02/18,04:20,0.396,0.234,0.406,0.375,0.339,0.195,0.167,north-northeast,5.7,No
2017/02/18,04:30,0.395,0.234,0.407,0.376,0.338,0.195,0.167,north,8.9,No
2017/02/18,04:40,0.395,0.234,0.407,0.376,0.338,0.195,0.166,north,8.6,No
2017/02/18,04:50,0.396,0.236,0.405,0.375,0.338,0.195,0.166,north,8.3,No
2017/02/18,05:00,0.396,0.235,0.405,0.374,0.336,0.195,0.166,north,9.1,No
2017/02/18,05:10,0.395,0.234,0.405,0.374,0.339,0.194,0.166,north,9.0,No
2017/02/18,05:20,0.396,0.233,0.406,0.376,0.338,0.194,0.167,north,7.2,No
2017/02/18,05:30,0.396,0.234,0.406,0.375,0.339,0.195,0.166,north,7.6,No
2017/02/18,05:40,0.395,0.233,0.405,0.374,0.338,0.195,0.166,north,7.5,No
2017/02/18,05:50,0.396,0.234,0.406,0.374,0.338,0.195,0.166,north,7.1,No
2017/02/18,06:00,0.396,0.233,0.407,0.374,0.337,0.195,0.167,north,5.5,No
2017/02/18,06:10,0.395,0.234,0.405,0.377,0.337,0.196,0.167,north,5.6,No
2017/02/18,06:20,0.395,0.234,0.404,0.375,0.337,0.195,0.167,north,5.1,No
2017/02/18,06:30,0.396,0.233,0.405,0.374,0.339,0.194,0.166,north,4.1,No
2017/02/18,06:40,0.395,0.233,0.406,0.376,0.338,0.194,0.166,north,3.8,No
2017/02/18,06:50,0.397,0.233,0.406,0.375,0.337,0.195,0.167,northwest,2.8,No
2017/02/18,07:00,0.394,0.233,0.405,0.375,0.338,0.195,0.165,north,3.2,No
2017/02/18,07:10,0.396,0.234,0.406,0.375,0.338,0.195,0.166,north-northwest,3.1,No
2017/02/18,07:20,0.397,0.233,0.404,0.376,0.337,0.195,0.167,north-northwest,4.5,No
2017/02/18,07:30,0.395,0.233,0.405,0.375,0.338,0.195,0.166,north,3.8,No
2017/02/18,07:40,0.393,0.233,0.404,0.374,0.338,0.195,0.166,north-northwest,3.5,No
2017/02/18,07:50,0.396,0.233,0.406,0.374,0.338,0.195,0.166,west-northwest,6.7,No
2017/02/18,08:00,0.394,0.232,0.405,0.375,0.338,0.194,0.166,northwest,6.5,No
2017/02/18,08:10,0.396,0.234,0.407,0.374,0.336,0.194,0.166,northwest,6.0,No
2017/02/18,08:20,0.396,0.233,0.405,0.373,0.338,0.195,0.167,northwest,7.0,No
2017/02/18,08:30,0.394,0.234,0.405,0.376,0.338,0.194,0.166,northwest,8.3,No
2017/02/18,08:40,0.395,0.234,0.406,0.374,0.337,0.195,0.165,northwest,6.8,No
2017/02/18,08:50,0.395,0.234,0.406,0.374,0.337,0.194,0.165,north-northwest,7.5,No
2017/02/18,09:00,0.394,0.233,0.405,0.376,0.337,0.194,0.165,northwest,7.0,No
2017/02/18,09:10,0.396,0.232,0.405,0.375,0.339,0.193,0.166,northwest,7.5,No
2017/02/18,09:20,0.394,0.233,0.408,0.374,0.338,0.195,0.166,north-northwest,10.8,No
2017/02/18,09:30,0.394,0.233,0.405,0.375,0.339,0.193,0.166,north-northwest,13.2,No
2017/02/18,09:40,0.394,0.233,0.405,0.373,0.339,0.196,0.166,northwest,8.4,No
2017/02/18,09:50,0.393,0.233,0.405,0.376,0.338,0.195,0.166,northwest,8.3,No
2017/02/18,10:00,0.394,0.234,0.407,0.372,0.338,0.195,0.165,northwest,6.6,No
2017/02/18,10:10,0.395,0.234,0.405,0.375,0.340,0.195,0.167,northwest,9.1,No
2017/02/18,10:20,0.394,0.233,0.404,0.374,0.337,0.195,0.165,northwest,9.8,No
2017/02/18,10:30,0.395,0.234,0.406,0.373,0.336,0.194,0.166,northwest,12.3,No
2017/02/18,10:40,0.394,0.234,0.407,0.373,0.338,0.196,0.165,northwest,10.1,No
2017/02/18,10:50,0.395,0.234,0.403,0.376,0.338,0.194,0.166,northwest,7.7,No
2017/02/18,11:00,0.396,0.233,0.407,0.374,0.336,0.195,0.166,northwest,8.2,No
2017/02/18,11:10,0.395,0.234,0.407,0.374,0.337,0.196,0.166,northwest,7.0,No
2017/02/18,11:20,0.394,0.236,0.405,0.378,0.338,0.196,0.166,west-northwest,8.1,No
2017/02/18,11:30,0.396,0.234,0.406,0.374,0.338,0.195,0.166,northwest,7.0,No
2017/02/18,11:40,0.394,0.233,0.405,0.377,0.340,0.195,0.166,northwest,8.1,No
2017/02/18,11:50,0.395,0.234,0.405,0.374,0.337,0.195,0.167,west-northwest,8.8,No
2017/02/18,12:00,0.396,0.234,0.406,0.375,0.339,0.196,0.166,northwest,6.3,No
2017/02/18,12:10,0.395,0.235,0.405,0.376,0.338,0.195,0.166,west-northwest,6.2,No
2017/02/18,12:20,0.395,0.235,0.404,0.375,0.337,0.196,0.165,northwest,3.9,No
2017/02/18,12:30,0.397,0.234,0.407,0.375,0.339,0.195,0.167,north-northwest,6.9,No
2017/02/18,12:40,0.396,0.234,0.403,0.375,0.338,0.196,0.166,northwest,5.6,No
2017/02/18,12:50,0.397,0.235,0.407,0.376,0.336,0.196,0.166,northwest,6.3,No
2017/02/18,13:00,0.396,0.235,0.406,0.376,0.340,0.195,0.167,north-northwest,6.9,No
2017/02/18,13:10,0.396,0.234,0.405,0.376,0.339,0.196,0.166,north-northwest,4.0,No
2017/02/18,13:20,0.394,0.235,0.407,0.376,0.338,0.194,0.167,west-northwest,5.1,No
2017/02/18,13:30,0.395,0.234,0.405,0.375,0.339,0.196,0.166,north,6.0,No
2017/02/18,13:40,0.395,0.233,0.407,0.375,0.339,0.196,0.168,west-northwest,3.3,No
2017/02/18,13:50,0.394,0.234,0.404,0.374,0.338,0.195,0.166,north-northwest,3.1,No
2017/02/18,14:00,0.397,0.234,0.404,0.376,0.339,0.195,0.166,west-northwest,6.0,No
2017/02/18,14:10,0.394,0.234,0.405,0.374,0.337,0.195,0.166,west-northwest,7.7,No
2017/02/18,14:20,0.394,0.233,0.404,0.374,0.340,0.195,0.167,northwest,7.8,No
2017/02/18,14:30,0.396,0.234,0.407,0.376,0.337,0.195,0.167,west,7.3,No
2017/02/18,14:40,0.394,0.234,0.406,0.376,0.337,0.195,0.168,west-northwest,5.9,No
2017/02/18,14:50,0.396,0.233,0.406,0.378,0.338,0.196,0.167,west-northwest,8.2,No
2017/02/18,15:00,0.396,0.233,0.408,0.377,0.339,0.195,0.166,west-northwest,7.2,No
2017/02/18,15:10,0.395,0.233,0.406,0.378,0.339,0.196,0.167,northwest,6.2,No
2017/02/18,15:20,0.394,0.234,0.406,0.379,0.339,0.195,0.167,west-northwest,4.8,No
2017/02/18,15:30,0.398,0.234,0.409,0.377,0.339,0.196,0.167,west-northwest,5.3,No
2017/02/18,15:40,0.397,0.235,0.407,0.378,0.339,0.195,0.167,west-northwest,4.6,No
2017/02/18,15:50,0.397,0.234,0.407,0.378,0.340,0.196,0.167,northwest,6.6,No
2017/02/18,16:00,0.398,0.234,0.408,0.377,0.338,0.194,0.167,west-northwest,4.9,No
2017/02/18,16:10,0.397,0.234,0.407,0.376,0.338,0.196,0.167,northwest,3.1,No
2017/02/18,16:20,0.397,0.235,0.405,0.378,0.339,0.195,0.166,west-northwest,4.8,No
2017/02/18,16:30,0.398,0.234,0.407,0.377,0.340,0.195,0.167,west,2.0,No
2017/02/18,16:40,0.398,0.235,0.407,0.375,0.340,0.195,0.167,north-northwest,1.7,No
2017/02/18,16:50,0.396,0.235,0.406,0.378,0.339,0.195,0.167,northwest,1.1,No
2017/02/18,17:00,0.396,0.235,0.408,0.377,0.339,0.196,0.168,north-northwest,0.6,No
2017/02/18,17:10,0.397,0.234,0.408,0.376,0.338,0.196,0.166,west-northwest,3.3,No
2017/02/18,17:20,0.397,0.234,0.407,0.376,0.338,0.196,0.166,west-northwest,3.6,No
2017/02/18,17:30,0.397,0.233,0.407,0.377,0.339,0.196,0.167,northwest,4.5,No
2017/02/18,17:40,0.397,0.235,0.407,0.376,0.339,0.195,0.168,northwest,6.7,No
2017/02/18,17:50,0.396,0.234,0.408,0.376,0.338,0.195,0.167,northwest,3.6,No
2017/02/18,18:00,0.396,0.234,0.407,0.376,0.339,0.195,0.167,north-northwest,5.1,No
2017/02/18,18:10,0.397,0.234,0.408,0.376,0.340,0.196,0.167,north-northwest,4.1,No
2017/02/18,18:20,0.398,0.236,0.407,0.375,0.338,0.196,0.168,northwest,3.6,No
2017/02/18,18:30,0.398,0.234,0.409,0.377,0.339,0.196,0.167,northwest,3.1,No
2017/02/18,18:40,0.395,0.233,0.406,0.377,0.338,0.195,0.167,northwest,3.8,No
2017/02/18,18:50,0.396,0.234,0.406,0.377,0.339,0.195,0.168,north-northwest,5.0,No
2017/02/18,19:00,0.397,0.235,0.408,0.376,0.337,0.196,0.167,northwest,5.9,No
2017/02/18,19:10,0.397,0.234,0.407,0.376,0.338,0.193,0.167,north-northwest,5.1,No
2017/02/18,19:20,0.397,0.233,0.406,0.377,0.338,0.195,0.167,north,6.2,No
2017/02/18,19:30,0.397,0.235,0.407,0.376,0.338,0.196,0.167,north,7.3,No
2017/02/18,19:40,0.397,0.234,0.406,0.375,0.338,0.196,0.167,north,7.2,No
2017/02/18,19:50,0.398,0.234,0.408,0.376,0.339,0.195,0.167,north,7.4,No
2017/02/18,20:00,0.397,0.234,0.407,0.377,0.340,0.197,0.167,north,6.4,No
2017/02/18,20:10,0.397,0.235,0.405,0.376,0.339,0.195,0.167,north,3.1,No
2017/02/18,20:20,0.397,0.234,0.407,0.375,0.338,0.196,0.166,north,2.8,No
2017/02/18,20:30,0.399,0.235,0.409,0.377,0.338,0.196,0.167,north,6.9,No
2017/02/18,20:40,0.398,0.235,0.406,0.377,0.339,0.196,0.167,north,5.7,No
2017/02/18,20:50,0.398,0.234,0.405,0.377,0.337,0.196,0.167,north,6.8,No
2017/02/18,21:00,0.398,0.234,0.406,0.376,0.339,0.195,0.167,north,9.1,No
2017/02/18,21:10,0.397,0.237,0.408,0.377,0.337,0.195,0.166,north,9.0,No
2017/02/18,21:20,0.397,0.234,0.408,0.379,0.338,0.195,0.167,north,9.0,No
2017/02/18,21:30,0.397,0.235,0.406,0.377,0.339,0.196,0.167,north,8.1,No
2017/02/18,21:40,0.396,0.235,0.406,0.378,0.339,0.195,0.166,north,8.6,No
2017/02/18,21:50,0.397,0.233,0.408,0.376,0.337,0.195,0.166,north,7.0,No
2017/02/18,22:00,0.399,0.235,0.407,0.376,0.337,0.195,0.166,north,7.2,No
2017/02/18,22:10,0.398,0.234,0.409,0.377,0.338,0.196,0.166,north,7.3,No
2017/02/18,22:20,0.398,0.234,0.406,0.377,0.338,0.195,0.167,north-northwest,7.5,No
2017/02/18,22:30,0.398,0.234,0.408,0.376,0.338,0.196,0.167,north-northwest,7.7,No
2017/02/18,22:40,0.397,0.234,0.407,0.376,0.338,0.196,0.168,northwest,5.9,No
2017/02/18,22:50,0.397,0.235,0.407,0.376,0.338,0.195,0.166,west-northwest,4.7,No
2017/02/18,23:00,0.395,0.233,0.407,0.377,0.339,0.195,0.167,northwest,4.2,No
2017/02/18,23:10,0.397,0.235,0.407,0.377,0.339,0.195,0.167,northwest,5.1,No
2017/02/18,23:20,0.397,0.234,0.406,0.376,0.338,0.195,0.166,northwest,5.6,No
2017/02/18,23:30,0.396,0.234,0.407,0.378,0.338,0.196,0.167,northwest,5.6,No
2017/02/18,23:40,0.396,0.234,0.406,0.376,0.338,0.195,0.167,northwest,5.6,No
2017/02/18,23:50,0.397,0.234,0.407,0.376,0.339,0.194,0.168,northwest,5.1,No
